Tracking 19170 objects as of 23-May-2018
HD Live streaming from Space Station
objects crossing your sky now

FENGYUN 1C DEB

Track FENGYUN 1C DEB now!
10-day predictions


NORAD ID: 29738
Int'l Code: 1999-025AC
Perigee: 804.0 km
Apogee: 2,139.3 km
Inclination: 99.4 °
Period: 115.2 minutes
Semi major axis: 7842 km
RCS: 0.1066 m2 (medium)
Launch date: May 10, 1999
Source: People's Republic of China (PRC)
Launch site: Taiyaun Space Center, China (TSC)

Note: This is SATELLITE DEBRIS
aabbcc
Your satellite tracking list
Your tracking list is empty




NASA's NSSDC Master Catalog

Two Line Element Set (TLE):
1 29738U 99025AC  18142.38393548 +.00001801 +00000-0 +31399-2 0  9990
2 29738 099.4452 080.5659 0851334 083.8359 285.8925 12.50000036516229
Source of the keplerian elements: AFSPC